Météo par heure à Aliağa

Ce jour, 26 Octobre, Lundi

Heure Température Précipitation Vent Pression Humidité
00:00 +19°C° 0 mm 2 m/s 754 mmHg 68%
01:00 +19°C° 0 mm 2 m/s 754 mmHg 71%
02:00 +19°C° 0 mm 2 m/s 754 mmHg 74%
03:00 +19°C° 0 mm 2 m/s 754 mmHg 76%
04:00 +20°C° 0 mm 1 m/s 755 mmHg 78%
05:00 +20°C° 0 mm 1 m/s 755 mmHg 81%
06:00 +20°C° 0 mm 1 m/s 755 mmHg 79%
07:00 +21°C° 0 mm 1 m/s 755 mmHg 78%
08:00 +22°C° 0 mm 1 m/s 755 mmHg 76%
09:00 +23°C° 0 mm 1 m/s 755 mmHg 71%
10:00 +24°C° 0 mm 1 m/s 756 mmHg 66%
11:00 +26°C° 0 mm 1 m/s 756 mmHg 61%
12:00 +26°C° 0 mm 2 m/s 756 mmHg 58%
13:00 +26°C° 0 mm 2 m/s 756 mmHg 56%
14:00 +27°C° 0 mm 3 m/s 755 mmHg 53%
15:00 +26°C° 0 mm 3 m/s 755 mmHg 56%
16:00 +25°C° 0 mm 2 m/s 755 mmHg 59%
17:00 +23°C° 0 mm 2 m/s 755 mmHg 63%
18:00 +23°C° 0 mm 2 m/s 756 mmHg 66%
19:00 +21°C° 0 mm 2 m/s 756 mmHg 69%
20:00 +21°C° 0 mm 1 m/s 756 mmHg 73%
21:00 +20°C° 0 mm 1 m/s 756 mmHg 72%
22:00 +20°C° 0 mm 1 m/s 756 mmHg 72%
23:00 +20°C° 0 mm 1 m/s 756 mmHg 71%

Demain, 27 Octobre, Mardi

Heure Température Précipitation Vent Pression Humidité
00:00 +19°C° 0 mm 1 m/s 756 mmHg 71%
01:00 +19°C° 0 mm 1 m/s 756 mmHg 70%
02:00 +19°C° 0 mm 1 m/s 756 mmHg 70%
03:00 +19°C° 0 mm 1 m/s 756 mmHg 70%
04:00 +18°C° 0 mm 1 m/s 755 mmHg 71%
05:00 +18°C° 0 mm 1 m/s 755 mmHg 71%
06:00 +19°C° 0 mm 1 m/s 755 mmHg 69%
07:00 +20°C° 0 mm 1 m/s 755 mmHg 66%
08:00 +20°C° 0 mm 1 m/s 756 mmHg 63%
09:00 +22°C° 0 mm 1 m/s 756 mmHg 58%
10:00 +24°C° 0 mm 1 m/s 756 mmHg 53%
11:00 +25°C° 0 mm 1 m/s 756 mmHg 48%
12:00 +26°C° 0 mm 1 m/s 755 mmHg 46%
13:00 +26°C° 0 mm 2 m/s 755 mmHg 45%
14:00 +27°C° 0 mm 2 m/s 754 mmHg 44%
15:00 +26°C° 0 mm 2 m/s 754 mmHg 50%
16:00 +24°C° 0 mm 2 m/s 754 mmHg 55%
17:00 +22°C° 0 mm 3 m/s 754 mmHg 61%
18:00 +21°C° 0 mm 2 m/s 754 mmHg 67%
19:00 +20°C° 0 mm 2 m/s 754 mmHg 72%
20:00 +20°C° 0 mm 1 m/s 755 mmHg 78%
21:00 +19°C° 0 mm 2 m/s 755 mmHg 80%
22:00 +19°C° 0 mm 2 m/s 755 mmHg 82%
23:00 +18°C° 0 mm 2 m/s 755 mmHg 84%

Après-demain, 28 Octobre, Mercredi

Heure Température Précipitation Vent Pression Humidité
00:00 +19°C° 0.1 mm 1 m/s 755 mmHg 85%
01:00 +19°C° 0.1 mm 1 m/s 755 mmHg 86%
02:00 +18°C° 0.1 mm 1 m/s 755 mmHg 86%
03:00 +18°C° 0.2 mm 1 m/s 755 mmHg 87%
04:00 +17°C° 0.2 mm 2 m/s 755 mmHg 87%
05:00 +17°C° 0.2 mm 2 m/s 755 mmHg 87%
06:00 +17°C° 0.2 mm 2 m/s 755 mmHg 85%
07:00 +18°C° 0.2 mm 2 m/s 755 mmHg 82%
08:00 +18°C° 0.2 mm 2 m/s 755 mmHg 79%
09:00 +20°C° 0.1 mm 2 m/s 755 mmHg 71%
10:00 +21°C° 0.1 mm 2 m/s 755 mmHg 63%
11:00 +24°C° 0.1 mm 2 m/s 756 mmHg 56%
12:00 +24°C° 0 mm 2 m/s 755 mmHg 53%
13:00 +25°C° 0 mm 2 m/s 755 mmHg 50%
14:00 +25°C° 0 mm 3 m/s 755 mmHg 47%
15:00 +24°C° 0.1 mm 3 m/s 755 mmHg 53%
16:00 +22°C° 0.1 mm 3 m/s 755 mmHg 58%
17:00 +21°C° 0.1 mm 3 m/s 755 mmHg 63%
18:00 +21°C° 0.1 mm 2 m/s 755 mmHg 67%
19:00 +20°C° 0.1 mm 2 m/s 755 mmHg 72%
20:00 +19°C° 0.1 mm 2 m/s 755 mmHg 76%
21:00 +19°C° 0.4 mm 2 m/s 755 mmHg 77%
22:00 +19°C° 0.4 mm 2 m/s 756 mmHg 77%
23:00 +19°C° 0.4 mm 1 m/s 756 mmHg 78%

29 Octobre, Jeudi

Heure Température Précipitation Vent Pression Humidité
00:00 +18°C° 0.2 mm 2 m/s 756 mmHg 77%
01:00 +18°C° 0.2 mm 2 m/s 755 mmHg 77%
02:00 +18°C° 0.2 mm 2 m/s 755 mmHg 76%
03:00 +18°C° 0.2 mm 2 m/s 755 mmHg 77%
04:00 +18°C° 0.2 mm 2 m/s 755 mmHg 77%
05:00 +17°C° 0.2 mm 2 m/s 756 mmHg 77%
06:00 +17°C° 0.1 mm 2 m/s 756 mmHg 76%
07:00 +18°C° 0.1 mm 2 m/s 756 mmHg 76%
08:00 +18°C° 0.1 mm 2 m/s 756 mmHg 75%
09:00 +20°C° 0 mm 1 m/s 757 mmHg 69%
10:00 +21°C° 0 mm 1 m/s 757 mmHg 63%
11:00 +23°C° 0 mm 1 m/s 757 mmHg 56%
12:00 +23°C° 0.1 mm 2 m/s 757 mmHg 54%
13:00 +23°C° 0.1 mm 2 m/s 757 mmHg 52%
14:00 +24°C° 0.1 mm 2 m/s 757 mmHg 50%
15:00 +23°C° 0 mm 2 m/s 757 mmHg 54%
16:00 +21°C° 0 mm 2 m/s 757 mmHg 58%
17:00 +20°C° 0 mm 3 m/s 757 mmHg 63%
18:00 +19°C° 0 mm 2 m/s 758 mmHg 66%
19:00 +19°C° 0 mm 2 m/s 758 mmHg 69%
20:00 +19°C° 0 mm 1 m/s 759 mmHg 72%
21:00 +19°C° 0 mm 1 m/s 759 mmHg 74%
22:00 +18°C° 0 mm 1 m/s 759 mmHg 75%
23:00 +18°C° 0 mm 1 m/s 760 mmHg 76%

30 Octobre, Vendredi

Heure Température Précipitation Vent Pression Humidité
00:00 +18°C° 0 mm 1 m/s 760 mmHg 77%
01:00 +16°C° 0 mm 1 m/s 760 mmHg 78%
02:00 +16°C° 0 mm 2 m/s 760 mmHg 79%
03:00 +16°C° 0 mm 2 m/s 760 mmHg 79%
04:00 +16°C° 0 mm 2 m/s 760 mmHg 80%
05:00 +15°C° 0 mm 2 m/s 760 mmHg 80%
06:00 +16°C° 0 mm 2 m/s 760 mmHg 77%
07:00 +16°C° 0 mm 2 m/s 761 mmHg 74%
08:00 +17°C° 0 mm 2 m/s 761 mmHg 71%
09:00 +19°C° 0 mm 3 m/s 761 mmHg 64%
10:00 +21°C° 0 mm 3 m/s 761 mmHg 56%
11:00 +22°C° 0 mm 4 m/s 761 mmHg 49%
12:00 +23°C° 0 mm 4 m/s 761 mmHg 48%
13:00 +23°C° 0 mm 4 m/s 761 mmHg 47%
14:00 +25°C° 0 mm 5 m/s 760 mmHg 46%
15:00 +23°C° 0 mm 5 m/s 760 mmHg 50%
16:00 +22°C° 0 mm 5 m/s 760 mmHg 53%
17:00 +21°C° 0 mm 5 m/s 760 mmHg 57%
18:00 +20°C° 0 mm 5 m/s 761 mmHg 62%
19:00 +17°C° 0 mm 5 m/s 761 mmHg 68%
20:00 +16°C° 0 mm 5 m/s 761 mmHg 74%
21:00 +16°C° 0 mm 5 m/s 761 mmHg 75%
22:00 +16°C° 0 mm 5 m/s 761 mmHg 77%
23:00 +15°C° 0 mm 5 m/s 761 mmHg 79%

31 Octobre, Samedi

Heure Température Précipitation Vent Pression Humidité
00:00 +15°C° 0 mm 5 m/s 761 mmHg 81%
01:00 +14°C° 0 mm 5 m/s 761 mmHg 82%
02:00 +14°C° 0 mm 5 m/s 760 mmHg 83%
03:00 +14°C° 0 mm 5 m/s 760 mmHg 84%
04:00 +13°C° 0 mm 5 m/s 760 mmHg 85%
05:00 +13°C° 0 mm 5 m/s 760 mmHg 86%
06:00 +14°C° 0 mm 5 m/s 760 mmHg 84%
07:00 +14°C° 0 mm 5 m/s 760 mmHg 81%
08:00 +15°C° 0 mm 5 m/s 760 mmHg 79%
Voir plus

Nous avons besoin de votre consentement

Meteoprog et ses fournisseurs de services peuvent stocker et accéder à des données personnelles telles que des cookies, des identifiants d'appareils ou d'autres technologies similaires sur votre appareil et traiter ces données pour personnaliser le contenu et les publicités, ainsi que pour fournir des fonctionnalités de médias sociaux et analyser le trafic.

  • Stocker et/ou accéder à des informations sur votre appareil

    Des cookies, des identifiants d'appareils ou d'autres informations peuvent être stockés ou accessibles sur votre appareil aux fins indiquées ci-dessus.

  • Annonces et contenus personnalisés, mesure des annonces et des contenus, connaissance de l'audience et développement de produits

    Les annonces et le contenu peuvent être personnalisés en fonction d'un profil. D'autres données peuvent être ajoutées pour mieux personnaliser les annonces et le contenu. Les performances des publicités et du contenu peuvent être mesurées. Il est possible d'obtenir des informations sur le public qui a vu les publicités et le contenu. Ces données peuvent être utilisées pour développer ou améliorer l'expérience de l'utilisateur, les systèmes et les logiciels.

En cliquant sur "J'accepte", vous autorisez l'utilisation de cookies, des identifiants d'appareils, des balises web ou d'autres technologies similaires. Vos paramètres peuvent être modifiés dans le navigateur de votre appareil.

Dans certains cas, des intérêts légitimes peuvent être invoqués plutôt qu'un consentement. Vous pouvez en savoir plus à ce sujet dans notre Politique de confidentialité et de cookies.